Date String (YYYY-MM-DD hh:mm:ss) UTC,Instrument flags,Ambient pressure (hPa),Sample flow (lpm),Bypass flow (lpm),Sample temperature (°C),Ambient temperature (°C),ASC tube jacket temperature (°C),LED temperature (°C),Box temperature (°C),Sample RH (%),Span deviation,Mass concentration (μg/m³),Mass concentration (μg/m³),Mass concentration (μg/m³)
DateTimeUTC,F1_M11,P_M11,Q1_M11,Q2_M11,T1_M11,T2_M11,T3_M11,T4_M11,T5_M11,U1_M11,ZSPAN_M11,X0_M11,X2_M11,X1_M11
2022-06-23 08:00:00,,0827.1,5.00,0.00,30.1,29.1,00.0,38.8,31.9,14.2,0000.0,0012.82,0004.44,0003.53
2022-06-23 08:01:00,,0827.2,5.00,0.00,30.1,29.0,00.0,38.8,31.9,14.3,0000.0,0012.73,0004.49,0003.53
2022-06-23 08:02:00,,0827.2,5.00,0.00,30.0,28.0,00.0,38.8,31.7,14.5,0000.0,0011.78,0004.49,0003.53
2022-06-23 08:03:00,,0827.2,5.00,0.00,29.9,27.5,00.0,38.7,31.5,14.5,0000.0,0011.81,0004.53,0003.55
2022-06-23 08:04:00,,0827.2,4.99,0.00,29.8,27.4,00.0,38.7,31.4,14.6,0000.0,0012.35,0004.61,0003.55
2022-06-23 08:05:00,,0827.2,5.00,0.00,29.8,27.4,00.0,38.7,31.4,14.7,0000.0,0012.49,0004.68,0003.56
2022-06-23 08:06:00,,0827.2,5.00,0.00,29.7,27.5,00.0,38.6,31.4,14.6,0000.0,0012.18,0004.73,0003.57
2022-06-23 08:07:00,,0827.1,4.99,0.00,29.7,27.6,00.0,38.6,31.4,14.6,0000.0,0012.54,0004.76,0003.58
2022-06-23 08:08:00,,0827.1,4.99,0.00,29.7,27.7,00.0,38.6,31.4,14.6,0000.0,0013.23,0004.79,0003.57
2022-06-23 08:09:00,,0827.1,4.98,0.00,29.7,27.8,00.0,38.6,31.4,14.8,0000.0,0014.00,0004.80,0003.57
2022-06-23 08:10:00,,0827.1,5.01,0.00,29.6,28.0,00.0,38.6,31.4,14.9,0000.0,0014.93,0004.80,0003.58
2022-06-23 08:11:00,,0827.0,4.99,0.00,29.6,28.1,00.0,38.6,31.4,15.2,0000.0,0015.55,0004.86,0003.58
2022-06-23 08:12:00,,0827.0,5.00,0.00,29.6,28.1,00.0,38.5,31.4,15.4,0000.0,0016.13,0004.86,0003.59
2022-06-23 08:13:00,,0827.3,5.00,0.00,29.6,28.2,00.0,38.5,31.4,15.3,0000.0,0016.40,0004.82,0003.60
2022-06-23 08:14:00,,0827.0,5.00,0.00,29.6,28.3,00.0,38.5,31.5,15.3,0000.0,0016.76,0004.83,0003.60
2022-06-23 08:15:00,,0826.9,5.00,0.00,29.7,28.3,00.0,38.5,31.5,15.3,0000.0,0016.35,0004.82,0003.61
2022-06-23 08:16:00,,0827.0,5.00,0.00,29.7,28.4,00.0,38.5,31.5,15.3,0000.0,0016.28,0004.82,0003.61
2022-06-23 08:17:00,,0827.0,4.99,0.00,29.7,28.5,00.0,38.5,31.5,15.3,0000.0,0016.56,0004.85,0003.63
2022-06-23 08:18:00,,0827.0,5.00,0.00,29.7,28.5,00.0,38.5,31.5,15.4,0000.0,0016.45,0004.85,0003.65
2022-06-23 08:19:00,,0827.0,5.01,0.00,29.7,28.5,00.0,38.5,31.5,15.3,0000.0,0015.73,0004.83,0003.67
2022-06-23 08:20:00,,0827.0,5.00,0.00,29.7,28.6,00.0,38.5,31.6,15.2,0000.0,0015.29,0004.82,0003.69
2022-06-23 08:21:00,,0826.9,5.00,0.00,29.7,28.6,00.0,38.5,31.6,15.1,0000.0,0014.91,0004.88,0003.70
2022-06-23 08:22:00,,0827.0,5.00,0.00,29.7,28.6,00.0,38.5,31.6,15.1,0000.0,0014.40,0004.89,0003.72
2022-06-23 08:23:00,,0827.1,4.99,0.00,29.7,28.6,00.0,38.6,31.6,15.0,0000.0,0014.38,0004.91,0003.75
2022-06-23 08:24:00,,0827.0,5.00,0.00,29.7,28.7,00.0,38.6,31.6,15.1,0000.0,0015.56,0004.95,0003.77
2022-06-23 08:25:00,,0827.0,5.01,0.00,29.8,28.7,00.0,38.6,31.6,15.1,0000.0,0015.66,0004.93,0003.78
2022-06-23 08:26:00,,0827.0,5.00,0.00,29.8,28.7,00.0,38.6,31.7,15.0,0000.0,0015.64,0004.90,0003.79
2022-06-23 08:27:00,,0827.0,4.99,0.00,29.8,28.7,00.0,38.6,31.7,15.2,0000.0,0015.36,0004.90,0003.80
2022-06-23 08:28:00,,0827.2,5.01,0.00,29.8,28.7,00.0,38.6,31.7,15.3,0000.0,0015.06,0004.92,0003.81
2022-06-23 08:29:00,,0826.9,5.00,0.00,29.8,28.8,00.0,38.6,31.7,15.2,0000.0,0014.92,0004.97,0003.82
2022-06-23 08:30:00,,0827.1,4.99,0.00,29.8,28.8,00.0,38.6,31.7,15.1,0000.0,0014.88,0005.05,0003.83
2022-06-23 08:31:00,,0827.1,5.00,0.00,29.8,28.8,00.0,38.6,31.7,15.1,0000.0,0015.45,0005.12,0003.85
2022-06-23 08:32:00,,0827.0,5.01,0.00,29.8,28.8,00.0,38.6,31.7,15.1,0000.0,0015.15,0005.13,0003.87
2022-06-23 08:33:00,,0826.9,5.00,0.00,29.9,28.8,00.0,38.7,31.7,15.1,0000.0,0015.06,0005.19,0003.87
2022-06-23 08:34:00,,0826.9,5.00,0.00,29.9,28.8,00.0,38.7,31.8,15.0,0000.0,0014.60,0005.19,0003.87
2022-06-23 08:35:00,,0826.9,4.99,0.00,29.9,28.8,00.0,38.7,31.8,14.9,0000.0,0013.90,0005.20,0003.86
2022-06-23 08:36:00,,0826.9,5.00,0.00,29.9,28.9,00.0,38.7,31.8,14.9,0000.0,0013.39,0005.25,0003.87
2022-06-23 08:37:00,,0826.9,5.02,0.00,29.9,28.9,00.0,38.7,31.7,14.9,0000.0,0013.49,0005.33,0003.87
2022-06-23 08:38:00,,0826.9,5.00,0.00,29.9,28.9,00.0,38.7,31.7,14.9,0000.0,0013.67,0005.38,0003.88
2022-06-23 08:39:00,,0826.8,4.99,0.00,29.9,28.9,00.0,38.7,31.8,14.9,0000.0,0014.76,0005.38,0003.89
2022-06-23 08:40:00,,0826.8,5.01,0.00,29.9,28.9,00.0,38.7,31.8,14.9,0000.0,0014.81,0005.35,0003.88
2022-06-23 08:41:00,,0826.9,5.01,0.00,29.9,28.9,00.0,38.7,31.8,15.0,0000.0,0014.52,0005.27,0003.87
2022-06-23 08:42:00,,0827.2,4.99,0.00,30.0,28.9,00.0,38.7,31.8,15.1,0000.0,0014.26,0005.27,0003.86
2022-06-23 08:43:00,,0827.0,4.99,0.00,30.0,28.9,00.0,38.8,31.8,15.1,0000.0,0014.90,0005.29,0003.86
2022-06-23 08:44:00,,0826.9,4.99,0.00,30.0,28.9,00.0,38.8,31.8,15.0,0000.0,0014.83,0005.23,0003.85
2022-06-23 08:45:00,,0826.8,5.02,0.00,30.0,28.9,00.0,38.8,31.9,15.1,0000.0,0014.60,0005.19,0003.84
2022-06-23 08:46:00,,0826.7,5.00,0.00,30.0,28.9,00.0,38.8,31.9,15.1,0000.0,0014.62,0005.19,0003.85
2022-06-23 08:47:00,,0826.8,5.00,0.00,30.0,29.0,00.0,38.8,31.9,15.2,0000.0,0014.73,0005.16,0003.85
2022-06-23 08:48:00,,0826.8,5.00,0.00,30.0,29.0,00.0,38.8,31.9,15.1,0000.0,0015.23,0005.13,0003.86
2022-06-23 08:49:00,,0826.8,5.00,0.00,30.0,29.0,00.0,38.8,31.9,15.1,0000.0,0015.40,0005.13,0003.86
2022-06-23 08:50:00,,0826.7,5.01,0.00,30.0,29.0,00.0,38.8,31.9,15.0,0000.0,0014.41,0005.19,0003.87
2022-06-23 08:51:00,,0826.8,4.99,0.00,30.1,29.0,00.0,38.8,31.9,15.1,0000.0,0014.84,0005.18,0003.87
2022-06-23 08:52:00,,0826.7,4.99,0.00,30.1,29.0,00.0,38.8,31.9,15.0,0000.0,0015.80,0005.23,0003.88
2022-06-23 08:53:00,,0826.7,5.01,0.00,30.1,29.0,00.0,38.9,31.9,14.8,0000.0,0015.29,0005.18,0003.89
2022-06-23 08:54:00,,0826.7,5.00,0.00,30.1,29.0,00.0,38.9,31.9,14.6,0000.0,0014.59,0005.10,0003.89
2022-06-23 08:55:00,,0826.7,5.00,0.00,30.1,29.0,00.0,38.9,31.9,14.5,0000.0,0014.92,0005.10,0003.90
2022-06-23 08:56:00,,0826.7,4.99,0.00,30.1,29.0,00.0,38.9,32.0,14.4,0000.0,0014.93,0005.12,0003.91
2022-06-23 08:57:00,,0826.7,5.01,0.00,30.1,29.1,00.0,38.9,31.9,14.3,0000.0,0014.37,0005.13,0003.92
2022-06-23 08:58:00,,0826.7,5.00,0.00,30.1,29.1,00.0,38.9,32.0,14.4,0000.0,0014.15,0005.16,0003.92
2022-06-23 08:59:00,,0826.7,5.00,0.00,30.1,29.1,00.0,38.9,32.0,14.4,0000.0,0013.80,0005.13,0003.92
